RH
68 66 69 73 74 72 74 79 72 65 61 62 58 46 45 44 48 50 49 53 53 52 50 50 50 51 50 50 51 52 46 37 33 27 9 10 27 34 44 62 67 58 53 62
72 71 67 73 74 74 72 70 80 77 69 62 57 51 49 49 52 54 56 57 59 60 59 54 53 52 54 54 56 53 53 46 38 36 31 17 9 22 29 38 42 49 52 45
76 74 70 64 74 74 71 74 81 82 78 68 63 56 50 53 56 57 59 59 62 67 70 64 61 55 54 56 53 54 53 54 50 44 39 37 36 8 10 20 30 33 38 43
78 77 69 64 72 74 59 68 80 90 82 77 68 66 56 56 59 60 60 64 64 68 70 70 65 62 58 58 57 55 56 57 55 53 49 42 40 42 30 3 7 21 26 36
84 82 78 62 81 85 73 58 76 82 85 77 74 72 59 60 62 64 63 66 69 70 65 67 68 69 64 59 60 56 57 57 60 56 53 52 44 42 44 46 28 6 4 20
86 85 76 60 75 81 84 70 70 79 92 83 80 70 63 59 59 60 61 66 71 74 69 66 69 73 68 59 59 55 56 54 50 51 52 54 50 41 41 45 50 44 28 13
90 76 65 71 74 90 83 67 67 79 79 75 77 74 70 63 59 57 57 66 71 76 75 64 66 69 64 56 46 51 51 50 54 55 53 50 52 48 45 45 49 49 49 48
89 79 75 74 85 94 78 71 74 69 66 68 76 81 70 68 61 59 62 70 75 80 78 63 55 49 43 44 36 41 45 46 45 47 52 56 54 52 48 47 55 50 51 54
81 86 85 71 87 84 76 74 78 72 59 55 65 77 70 68 65 67 70 77 79 80 75 64 54 34 33 36 30 35 40 42 48 49 50 53 53 54 53 53 60 53 50 52
68 82 78 64 79 79 74 78 76 74 69 65 68 70 65 64 67 68 70 74 79 77 64 57 45 22 28 34 34 37 42 43 46 49 51 54 53 58 57 58 56 56 54 56
66 83 69 65 77 78 75 75 81 71 71 66 63 66 66 64 64 65 65 66 69 67 60 52 28 21 30 33 42 46 49 49 52 48 50 55 58 56 61 60 60 61 61 62
69 67 71 83 82 78 82 77 72 80 78 69 64 59 64 67 67 64 65 65 72 62 63 34 21 23 30 40 50 52 52 59 63 64 62 63 66 69 67 66 66 67 70 70
69 49 69 86 81 84 81 76 76 78 80 81 74 61 66 66 68 68 64 62 66 63 42 18 19 23 34 51 54 55 56 62 67 64 59 57 56 64 70 71 71 74 77 79
68 42 40 60 69 74 70 74 84 78 74 80 82 66 71 72 74 71 66 52 61 60 18 16 18 23 36 54 57 58 60 60 64 68 65 60 58 61 73 78 77 79 86 89
64 45 42 42 44 52 64 74 85 81 88 75 76 82 78 78 80 77 74 55 64 56 17 16 18 23 32 49 60 61 67 67 67 68 59 47 58 74 82 86 91 91 91 92
66 52 37 46 52 51 49 62 75 73 79 69 69 82 87 80 81 82 77 64 44 43 15 16 18 25 35 54 68 65 73 74 72 68 54 50 61 76 90 98 97 98 98 97
68 60 48 45 66 76 76 64 56 62 71 74 65 78 93 76 84 86 84 81 66 22 14 17 18 28 34 60 68 70 77 78 74 66 54 49 44 63 88 97 100 100 100 100
76 61 60 49 55 76 100 96 88 76 65 67 78 88 89 86 88 83 88 91 86 58 23 16 17 25 30 48 64 73 78 81 76 67 52 40 53 68 74 88 100 100 100 100
92 72 56 53 56 56 81 100 98 90 91 80 82 96 92 86 87 81 81 90 89 75 61 41 27 24 39 58 70 78 79 78 75 69 55 54 70 86 88 93 100 100 100 100
95 84 64 54 64 68 69 78 94 88 97 88 88 99 97 91 85 84 89 85 87 81 75 69 52 52 64 67 77 80 80 79 78 68 60 65 90 95 97 100 100 99 100 100
94 91 85 75 71 69 65 64 76 89 94 74 97 97 85 91 90 95 100 97 93 88 91 78 70 89 75 73 78 79 81 81 79 67 70 78 90 92 99 100 100 99 97 94
97 94 90 84 76 74 74 74 71 94 92 94 99 96 96 97 96 92 89 93 96 100 86 80 90 89 80 83 86 84 84 87 87 82 86 98 100 100 100 100 96 94 90 90
95 94 89 80 71 70 67 86 97 98 95 98 98 98 99 100 100 95 98 97 94 93 89 93 92 84 84 85 86 87 93 98 97 98 100 100 100 100 97 96 93 91 93 95
94 89 76 80 73 60 80 98 97 97 94 100 99 99 98 100 100 100 100 98 96 98 97 87 89 85 90 95 94 93 98 100 100 100 100 100 100 100 100 97 96 98 100 100
96 87 76 69 76 88 99 98 99 96 98 99 99 98 100 100 100 100 100 100 98 93 94 97 95 98 100 99 99 99 100 100 100 100 100 100 99 99 100 100 100 100 100 96
96 75 72 81 97 99 98 98 98 99 99 99 99 99 98 96 100 99 100 100 100 100 100 100 99 100 99 98 99 100 100 100 100 100 100 100 100 100 100 100 98 76 42 21
82 73 89 99 98 99 99 99 99 99 99 100 100 99 100 99 99 100 97 98 99 100 98 97 98 97 97 99 100 100 100 100 100 100 100 100 100 91 62 35 18 11 9 10
Wind_Speed
22 25 28 29 30 31 29 29 23 20 21 24 26 27 28 30 34 36 38 41 42 46 48 49 48 49 50 51 49 46 43 45 46 48 40 29 23 15 11 5 3 4 13 8
19 24 27 28 29 33 32 28 25 22 20 23 25 26 26 29 33 36 38 40 41 44 46 47 48 48 48 49 49 47 44 42 41 42 43 40 25 15 11 4 6 9 10 13
20 24 28 29 31 36 38 28 22 20 19 20 23 25 24 28 33 34 37 40 41 42 43 45 47 48 46 45 47 46 45 40 39 39 37 37 37 31 17 10 7 9 15 17
22 24 29 30 31 35 39 34 24 21 19 18 21 24 24 28 29 32 37 39 42 44 44 42 44 46 47 44 42 44 44 41 38 35 33 33 33 31 30 23 16 14 14 15
22 24 29 29 30 30 36 36 26 22 17 17 21 23 23 27 29 32 36 39 41 44 45 44 43 44 47 46 43 41 42 40 38 33 31 31 30 31 29 27 24 19 15 18
22 24 29 26 27 29 34 36 28 20 19 17 20 23 23 27 31 32 35 38 40 42 44 44 44 42 43 44 43 42 40 40 38 36 32 31 29 29 29 28 27 27 26 21
20 22 27 28 29 30 32 34 32 18 17 15 18 22 24 25 30 32 35 37 40 42 42 43 42 40 39 41 41 41 41 40 39 35 34 33 32 27 27 28 29 28 26 27
18 21 25 26 31 29 32 36 35 22 16 15 17 22 23 24 29 31 34 38 40 42 43 40 37 39 39 38 40 38 39 40 39 39 36 35 32 30 27 27 29 28 28 28
16 19 21 24 27 31 30 33 35 27 20 16 15 20 21 23 27 30 33 38 40 42 41 38 35 37 36 39 40 39 39 40 40 40 38 36 36 33 31 28 28 28 28 29
15 18 19 20 24 27 27 29 31 29 21 19 19 22 22 26 28 30 34 38 40 42 39 36 37 36 36 38 41 40 39 40 40 40 40 38 37 34 33 32 32 30 29 30
16 17 19 17 21 22 24 27 29 30 25 21 20 21 26 27 29 33 34 38 43 42 40 39 40 37 36 38 41 40 39 40 41 42 41 41 40 38 35 35 34 33 32 31
18 18 18 13 18 19 21 24 25 29 31 29 29 28 30 33 33 33 37 40 40 37 37 39 35 35 36 39 41 41 40 40 41 41 40 41 40 38 38 37 35 35 34 33
21 20 17 15 17 20 21 25 28 27 25 27 30 31 32 33 34 35 37 38 32 30 33 34 35 35 35 41 42 41 43 43 42 43 43 42 42 39 38 38 37 36 36 35
23 21 20 22 23 23 22 25 27 28 26 26 29 33 35 37 35 38 39 37 30 31 31 34 36 38 39 40 43 45 46 46 45 44 43 43 42 41 41 40 39 39 38 38
27 25 22 22 27 30 27 23 27 30 34 30 30 35 39 39 38 39 40 38 34 33 32 36 36 37 43 43 48 48 47 48 47 45 44 44 44 44 44 44 43 42 41 41
31 31 30 24 26 30 33 30 28 30 34 39 36 35 39 41 43 41 42 41 38 36 34 37 36 39 45 48 52 50 49 51 50 48 46 45 45 45 45 46 47 46 44 44
35 34 36 34 27 28 30 34 33 33 34 39 43 40 43 45 46 41 40 40 41 38 36 35 37 40 47 51 57 54 52 52 53 52 51 50 50 48 48 48 49 50 48 46
37 38 38 40 37 33 31 31 31 32 35 40 44 46 48 49 50 45 43 43 43 42 39 39 39 42 50 56 62 57 54 53 54 55 56 55 53 53 52 51 52 53 52 49
38 41 41 43 40 40 35 36 34 35 38 42 44 50 55 54 53 50 48 47 47 48 44 46 44 46 52 59 66 58 56 57 57 59 59 57 55 54 55 54 56 55 55 51
40 43 44 45 43 45 44 44 43 43 45 44 47 52 57 57 53 51 51 52 52 54 50 53 48 48 56 64 62 58 60 61 62 63 62 60 58 57 56 57 57 54 53 52
44 49 48 46 48 49 49 50 44 48 50 48 50 50 56 55 55 55 54 55 57 59 56 52 50 53 59 64 61 60 62 64 66 66 63 61 59 57 57 57 56 55 54 53
50 53 53 53 51 53 52 50 49 51 52 56 58 56 62 58 57 57 58 58 61 61 58 51 54 58 63 64 61 63 66 67 68 66 64 61 59 58 58 56 55 55 55 56
53 56 57 57 59 56 56 48 47 47 51 53 59 62 59 57 58 61 61 62 63 62 58 56 57 63 67 66 65 68 69 69 69 67 64 60 59 59 58 57 56 57 58 59
54 57 61 62 63 60 51 49 47 47 45 55 59 59 60 60 62 64 64 64 63 60 58 59 64 67 69 67 68 71 70 71 70 66 62 61 61 60 60 60 61 62 63 64
54 60 65 66 64 55 49 51 51 44 52 57 60 57 61 61 63 66 65 62 63 60 60 63 66 69 67 69 72 73 73 73 69 65 63 64 64 64 64 65 66 66 66 66
63 69 69 64 59 53 51 53 49 48 56 57 60 59 60 61 65 66 62 62 58 58 62 66 70 70 72 74 75 76 76 73 69 67 68 68 68 68 68 69 69 68 67 66
70 70 66 61 57 53 52 52 49 54 59 63 57 59 61 63 65 63 66 63 62 63 68 71 73 74 76 77 78 78 76 73 71 72 73 73 72 72 72 71 70 69 67 65
Wind_Direction
347 349 353 352 349 348 343 341 340 341 340 344 346 354 358 2 5 7 7 5 4 5 7 8 11 12 14 16 16 16 17 20 23 29 30 29 34 38 48 135 178 259 238 240
340 347 353 354 355 352 343 339 336 332 336 339 344 353 355 359 3 6 5 5 3 3 4 6 8 10 10 13 16 15 15 15 17 23 27 32 29 20 33 357 295 239 229 251
338 342 349 350 353 352 350 336 332 329 331 336 343 347 350 357 357 1 3 4 2 2 2 3 4 6 8 9 13 14 14 12 12 14 17 21 28 30 18 353 350 285 271 266
336 343 347 350 351 350 352 354 339 338 331 327 341 344 348 350 355 356 1 359 359 1 1 3 2 3 2 7 10 12 12 12 10 8 8 11 14 21 26 22 358 310 302 293
331 341 342 348 353 348 352 353 348 341 337 326 335 341 342 350 354 357 358 357 358 360 2 4 3 1 0 4 9 10 10 9 9 6 3 2 3 6 9 15 18 19 349 289
337 340 344 348 349 345 347 353 351 348 350 326 330 335 336 343 352 355 357 357 358 1 3 3 2 1 359 2 6 7 8 7 8 4 1 358 357 355 355 358 1 6 6 5
336 338 345 349 347 345 347 351 352 352 342 321 325 330 330 337 350 353 356 357 357 0 3 2 2 3 360 2 5 5 4 4 3 2 360 357 354 348 345 345 349 355 354 356
328 334 343 342 344 346 347 349 355 345 336 330 324 326 331 339 346 351 353 353 356 357 358 1 3 3 1 1 3 4 2 0 359 358 357 353 351 344 339 337 336 341 344 347
319 328 336 335 337 343 344 350 355 357 350 337 326 326 332 338 341 349 351 352 353 353 355 358 2 2 360 357 0 1 1 359 354 353 355 352 349 343 337 332 330 330 334 337
325 326 324 332 331 337 343 348 355 356 351 342 339 335 335 338 342 348 353 350 349 349 351 356 357 360 358 356 355 359 358 358 352 351 352 351 347 344 336 331 328 325 325 326
321 315 317 327 323 332 341 344 351 353 353 349 346 341 337 344 349 347 350 348 346 348 347 351 353 356 356 354 351 351 353 354 352 353 351 348 345 341 335 328 324 322 320 319
315 303 309 313 317 325 341 338 343 349 345 346 344 347 344 344 345 347 346 344 345 343 342 341 345 350 352 348 347 348 351 351 349 347 346 343 340 335 332 328 324 319 315 315
310 302 291 296 311 313 319 331 336 340 342 333 333 335 339 342 340 339 340 340 341 339 332 335 338 341 347 345 344 346 348 348 351 347 345 342 339 336 330 326 323 319 313 311
305 305 296 284 293 299 304 313 324 325 331 336 333 332 333 334 333 333 334 335 336 335 328 330 333 333 341 345 341 342 343 344 346 347 343 339 337 334 331 327 322 317 314 312
302 302 305 297 292 297 303 313 315 318 324 327 325 325 326 328 327 326 327 329 329 330 329 326 327 327 334 339 340 339 339 341 345 345 343 338 335 332 330 326 321 319 318 314
299 304 302 305 305 303 302 306 306 307 312 316 321 319 317 322 328 320 322 324 326 323 325 321 322 321 331 336 339 336 337 338 342 343 342 336 334 331 327 324 322 321 317 313
296 301 304 304 303 302 304 301 302 308 310 314 314 316 314 316 322 317 315 318 320 319 320 316 318 319 326 333 337 333 333 337 339 341 340 336 333 330 328 325 322 319 317 317
296 296 300 303 304 297 302 298 296 301 304 308 313 315 310 312 316 315 313 315 316 317 316 313 314 318 323 327 331 330 331 336 338 338 338 336 330 329 328 324 320 320 320 320
290 293 294 297 301 301 298 299 297 298 310 307 311 311 307 310 311 312 311 311 311 312 311 309 316 318 321 325 328 328 330 334 336 337 335 331 328 327 324 320 318 320 319 318
286 289 289 292 301 298 298 296 297 301 296 304 310 309 306 307 309 309 308 308 307 310 313 312 314 319 320 323 325 325 330 333 335 335 331 328 325 322 318 316 317 317 315 314
286 287 285 286 289 293 292 290 299 304 306 304 309 310 305 306 308 307 304 305 307 308 310 309 312 320 322 324 324 325 329 332 332 331 327 324 321 318 315 314 313 312 312 311
279 283 285 284 283 286 287 292 304 303 301 306 309 307 310 304 303 304 304 304 306 306 308 308 313 320 323 324 324 326 329 330 328 325 322 319 316 314 312 311 310 310 308 307
274 279 283 286 288 286 290 302 304 303 303 303 308 308 304 297 300 302 302 302 304 304 303 312 316 321 324 324 324 325 326 325 324 321 318 316 313 312 311 310 308 307 305 305
271 277 280 284 290 296 297 298 299 300 305 305 308 304 297 297 301 304 304 304 302 302 309 316 319 320 322 321 322 323 321 320 319 317 315 313 312 311 309 308 307 305 305 305
263 273 279 286 292 292 293 294 297 301 301 298 303 297 295 296 300 303 302 299 301 310 315 316 317 318 319 320 321 319 317 318 317 315 313 313 312 310 309 307 306 305 305 304
263 271 279 286 286 286 290 292 295 296 294 297 302 296 295 296 299 298 297 296 306 311 313 314 315 317 318 318 317 316 316 316 316 314 314 313 311 309 308 306 306 305 304 302
267 275 278 280 281 284 285 290 292 294 296 298 295 295 296 294 293 294 293 303 307 309 311 313 315 316 316 316 315 315 316 316 315 314 313 311 309 308 307 306 305 304 302 301